Preview of NWS' New Version of Forecast
This preview is not operational and should not be used for support decisions.

Regional Weather Roundup (RWR)

Issued by National Weather Service (NWS)

                            
000
ASUS43 KMKX 201111
RWRWI 

WISCONSIN REGIONAL WEATHER ROUNDUP
NATIONAL WEATHER SERVICE MILWAUKEE/SULLIVAN WI
600 AM CDT TUE AUG 20 2019

NOTE: "FAIR" INDICATES FEW OR NO CLOUDS BELOW 12,000 FEET WITH NO
SIGNIFICANT WEATHER AND/OR OBSTRUCTIONS TO VISIBILITY.

WIZ001-002-006>008-014>016-023>028-201200-
NORTHWEST WISCONSIN
  
CITY           SKY/WX    TMP DP  RH WIND       PRES   REMARKS
SUPERIOR ARPT  FAIR      54  54 100 CALM      29.87S                  
ASHLAND        FAIR      59  56  89 S6        29.88F                  
HAYWARD        FAIR      54  51  90 CALM      29.92F                  
SIREN          FAIR      60  58  92 S6        29.91R                  
CUMBERLAND     FAIR      54  52  94 CALM      29.94R                  
RICE LAKE      FAIR      57  41  54 CALM      29.95R                  
CHETEK         FAIR      57  57 100 CALM      29.94F                  
LADYSMITH      FAIR      56  55  97 SE5       29.96F                  
EAU CLAIRE     FAIR      55  54  96 CALM      29.93F                  
MENOMONIE      FAIR      53  53  99 E5        29.92F                  
NEW RICHMOND   FAIR      59  58  96 SE3       29.91F                  
OSCEOLA        FAIR      60  60 100 CALM      29.93F                  
$$
 
WIZ003>005-009-010-017-018-201200-
NORTH CENTRAL WISCONSIN
  
CITY           SKY/WX    TMP DP  RH WIND       PRES   REMARKS
MANITOWISH WTR FAIR      51  51 100 SE5       29.94F FOG              
ARBOR VITAE    FAIR      54  51  90 SE5       29.94F                  
WOODRUFF       FAIR      54  51  90 SE5       29.94F                  
RHINELANDER    FAIR      51  49  92 CALM      29.98F                  
EAGLE RIVER    FAIR      47  47 100 CALM      29.98F                  
LAND O LAKES   FAIR      47  46  99 CALM      30.00F FOG              
PHILLIPS       FAIR      52  52 100 CALM      29.94F                  
TOMAHAWK       FAIR      46  46  97 CALM      29.97F                  
MEDFORD        FAIR      51  50  99 CALM      29.98S                  
MERRILL        FAIR      48  48 100 CALM      29.99F                  
$$
 
WIZ029-030-035-036-043>047-201200-
CENTRAL WISCONSIN
  
CITY           SKY/WX    TMP DP  RH WIND       PRES   REMARKS
WAUSAU         FAIR      51  51 100 E6        29.98F                  
MOSINEE        CLEAR     52  52 100 CALM      30.00S                  
MARSHFIELD     FAIR      55  52  89 NE5       29.96F                  
STEVENS POINT  FAIR      47  47 100 CALM      29.99S                  
WAUPACA        FAIR      54  53  97 CALM      29.99F                  
WAUTOMA        FAIR      52  51  97 CALM      29.98F                  
WISC RAPIDS    FAIR      54  52  93 CALM      29.97F                  
CAMP DOUGLAS   FAIR      53  53 100 CALM      29.97F                  
$$
 
WIZ011>013-019>022-031-037>040-048>050-201200-
NORTHEAST WISCONSIN
  
CITY           SKY/WX    TMP DP  RH WIND       PRES   REMARKS
ANTIGO         FAIR      48  48 100 CALM      30.00F                  
SHAWANO        FOG       55  54  97 CALM      29.98F VSB 3/4          
OCONTO         FAIR      50  49  97 CALM      29.99F                  
STURGEON BAY   FAIR      57  56  96 CALM      30.01F                  
GREEN BAY      FAIR      55  54  96 NE3       29.98F                  
MANITOWOC      FAIR      54  54 100 CALM      30.01F                  
APPLETON       CLEAR     59  57  94 CALM      29.99F                  
CLINTONVILLE   FAIR      52  50  94 CALM      30.01S                  
OSHKOSH        FAIR      58  55  90 CALM      29.99F                  
$$
 
WIZ032>034-041-042-053>061-201200-
SOUTHWEST WISCONSIN
  
CITY           SKY/WX    TMP DP  RH WIND       PRES   REMARKS
LA CROSSE      FAIR      61  57  87 E6        29.98R                  
SPARTA         FAIR      49  49  99 CALM      29.99R                  
VIROQUA        FAIR      60  60  98 S6        30.01R                  
BOSCOBEL       CLOUDY    62  61  96 CALM      30.00R                  
PRAIRIE DU CHI FAIR      64  62  93 CALM      29.98R                  
PLATTEVILLE    FAIR      65  65  98 E7        29.98R                  
$$

WIZ056-057-062-063-064-067-068-201200-
SOUTH CENTRAL WISCONSIN
  
CITY           SKY/WX    TMP DP  RH WIND       PRES   REMARKS
REEDSBURG      FAIR      56  56 100 CALM      29.98R                  
BARABOO/DELLS  FAIR      59  58  96 E7        29.97S                  
LONE ROCK      FOG       61  61 100 CALM      29.99R VSB 3/4          
MINERAL POINT    N/A     66  64  94 MISG      30.01R                  
MADISON        MOCLDY    61  58  90 CALM      29.97F                  
MIDDLETON      FAIR      59  26  28 CALM      29.99S                  
WATERTOWN      FAIR      62  62 100 E3        29.96F                  
MONROE         FAIR      65  63  92 E6        29.98S                  
JANESVILLE     MOCLDY    64  64 100 CALM      29.98F FOG              
$$
 
WIZ051-052-058>065-066-070>072-201200-
SOUTHEAST WISCONSIN
  
CITY           SKY/WX    TMP DP  RH WIND       PRES   REMARKS
MILWAUKEE      FOG       71  69  93 N3        30.00R VSB 1/2          
WAUKESHA       FOG       64  64 100 CALM      30.01F VSB 1/4          
MILWAUKEE/TIMM FOG       68  63  83 CALM      30.01S VSB 1/2          
RACINE         FOG       71  70  96 CALM      30.01F VSB 1/2          
KENOSHA        CLOUDY    70  70 100 CALM      30.00R FOG              
FOND DU LAC    FAIR      58  55  90 CALM      29.99F                  
SHEBOYGAN      FAIR      55  54  96 CALM      30.00F FOG              
WEST BEND      FOG       59  59 100 CALM      30.00S VSB<1/4          
JUNEAU         FAIR      60  58  91 CALM      29.99F                  
$$

LSZ147-162-201200-
LAKE SUPERIOR
  
STATION/POSITION TIME  TEMP    WIND        PRES    WAVE
                       AIR SEA DIR/SP/G            HT/PER
                 (UTC) (F)     (DEG/KT/KT) (MB)    (FT/S)
W MID LAKE BUOY  1050   65 63  210/  8/  8 1011.4F   2/ 4
DEVILS ISLAND    1000   68     190/  6/  6 1012.4F
SAXON HARBOR     1040   64     190/  6/ 10 1011.2F
$$
 
LMZ867-665-643>646-201200-
LAKE MICHIGAN
  
STATION/POSITION TIME  TEMP    WIND        PRES    WAVE
                       AIR SEA DIR/SP/G            HT/PER
                 (UTC) (F)     (DEG/KT/KT) (MB)    (FT/S)
S GREEN BAY BUOY 1030   73 70  190/  6/  6 1016.1F
N MID LAKE BUOY  1050   69 69  230/  6/  8 1016.3F   1/ 4
NORTHPORT PIER   1040   62     180/  2/  4 1015.9F
KEWAUNEE LAKESHO 1024   58      CALM  /  3 1016.1
SHEBOYGAN LAKESH 1100   65      10/  2/  3 1015.8F
PORT WASHINGTON  1040   68      CALM  /  3 1016.6F
S MID LAKE BUOY  1050   73 74   70/ 10/ 12 1014.9F   0
KENOSHA   LAKESH 1100   72      10/  6/ 10 1015.6
$$

TC  - TEMPERATURE IN CELSIUS
VSB - VISIBILITY IN STATUTE MILES
WCI - WIND CHILL INDEX
HX  - HEAT INDEX